Погода в Иванчуге

Россия / Астраханская область     46°04′23″N   47°58′54″E
темп.,
°C
ветер,
м/с
пор.,
м/с
влажн.,
%
обл.,
%
осадки,
мм/ч
давл.,
гПа
погр.,
м
12 апреля, пн
пн1201:00+17вюв920315 0.0 1019449
04:00+15вюв8184829 0.0 1020381
07:00+14вюв816545 0.0 1021385
10:00+18вюв9134053 0.0 1023602
13:00+20вюв91134100 0.0 1023868
16:00+21вюв91128100 0.0 10231282
19:00+18в8163466 0.0 1023580
22:00+17в81827100 0.0 1023528
13 апреля, вт
вт1301:00+15вюв71935100 0.0 1024484
04:00+13в61443100 0.0 1024319
07:00+13в5144250 0.0 1025333
10:00+20вюв910190 0.0 1025737
13:00+20вюв911190 0.0 1025982
16:00+20вюв911190 0.0 10241143
19:00+17в612300 0.0 1023525
22:00+13всв413405 0.0 1022278
14 апреля, ср
ср1401:00+14в5124099 0.0 1021230
04:00+12в51353100 0.0 1019234
07:00+12в5125364 0.0 1019271
10:00+20вюв811260 0.0 1019837
13:00+22вюв9101959 0.0 10181195
16:00+21вюв77215 0.0 10171121
19:00+19вюв3529100 0.0 1017230
22:00+17св223390 0.0 101729
15 апреля, чт
чт1501:00+15с333393 0.0 101527
04:00+14св3435100 0.0 101553
07:00+13всв3348100 0.0 101462
10:00+18зюз1229100 0.0 1015309
13:00+23з322495 0.0 10142003
16:00+24в122389 0.0 10132529
19:00+19вюв462934 0.0 1014322
22:00+15ююв223781 0.0 101426
16 апреля, пт
пт1601:00+14юз12394 0.0 101310
04:00+13ю11431 0.0 101310
07:00+14в11405 0.0 101310
10:00+20вюв222356 0.0 1014542
13:00+23вюв221911 0.0 10132617
16:00+25ююз441824 0.0 10122755
19:00+21ююз4624100 0.0 1013210
22:00+17юз4938100 0.0 1014209